Station: Coonawarra  

  Atmospheric Gas Attenuation - ITU Rec 676-11   ----------------- dB/100km -----------------
Date Time Temp RH % AH g/m3 Dew Point Wind Direction Speed kph Gust kph Barometer mB Rainfall Since 9am 24GHz 47GHz 76GHz 122GHz 134GHz 241GHz
05/05 16:00 15.4 73 9.59 10.6 11 15 1022.2 0 21.6 27.4 43.4 113.9 110.2 380.0
05/05 15:50 15.5 71 9.38 10.3 13 15 1022.2 0 21.2 27.0 42.5 111.5 107.3 369.6
05/05 15:40 15.6 74 9.84 11 9 9 1022.2 0 22.1 27.7 44.3 116.4 113.3 390.8
05/05 15:30 15.5 73 9.65 10.7 15 22 1022.1 0 21.7 27.4 43.6 114.4 110.9 382.3
05/05 15:20 15.5 72 9.52 10.5 20 24 1022.1 0 21.5 27.2 43.0 113.0 109.1 376.2
05/05 15:10 15.7 73 9.77 10.9 13 17 1022 0 22.0 27.6 43.9 115.4 112.2 386.9
05/05 15:00 15.6 73 9.71 10.8 13 17 1021.9 0 21.9 27.5 43.7 114.9 111.5 384.5
05/05 14:50 15.5 72 9.52 10.5 13 15 1021.8 0 21.5 27.2 43.0 113.0 109.1 376.1
05/05 14:40 15.7 73 9.77 10.9 7 9 1021.8 0 22.0 27.6 43.9 115.4 112.2 386.9
05/05 14:30 15.6 74 9.84 11 13 19 1021.7 0 22.1 27.7 44.3 116.3 113.3 390.6
05/05 14:20 15.4 75 9.85 11 9 11 1021.6 0 22.2 27.8 44.4 116.7 113.7 392.1
05/05 14:10 15.3 75 9.79 10.9 13 15 1021.6 0 22.0 27.7 44.2 116.2 113.0 389.7
05/05 14:00 15.4 76 9.99 11.2 9 15 1021.6 0 22.5 28.0 45.0 118.2 115.6 398.7
05/05 13:50 15.4 75 9.85 11 15 17 1021.6 0 22.2 27.8 44.4 116.7 113.7 392.1
05/05 13:40 15.3 75 9.79 10.9 15 17 1021.5 0 22.0 27.7 44.2 116.2 113.0 389.7
05/05 13:30 15.2 73 9.48 10.4 9 13 1021.5 0 21.4 27.2 43.0 112.9 109.0 375.5
05/05 13:20 15.1 75 9.68 10.7 11 13 1021.6 0 21.8 27.6 43.9 115.3 111.8 385.5
05/05 13:10 15.5 73 9.65 10.7 15 17 1021.6 0 21.7 27.4 43.5 114.4 110.8 382.1
05/05 13:00 16.1 74 10.14 11.5 15 20 1021.6 0 22.7 28.0 45.2 118.8 116.6 402.3
05/05 12:50 16.1 70 9.59 10.6 15 17 1021.7 0 21.6 27.1 43.0 112.8 109.2 376.4
05/05 12:40 15.9 69 9.34 10.2 17 20 1021.7 0 21.1 26.8 42.1 110.4 106.1 365.8
05/05 12:30 16.1 72 9.87 11.1 13 20 1021.8 0 22.2 27.6 44.1 115.9 112.9 389.6
05/05 12:20 16.2 71 9.79 10.9 15 19 1021.9 0 22.0 27.4 43.7 114.9 111.7 385.4
05/05 12:10 15.9 71 9.61 10.7 13 17 1021.9 0 21.6 27.2 43.2 113.4 109.7 378.4
05/05 12:00 15.5 71 9.38 10.3 13 19 1022 0 21.2 27.0 42.5 111.5 107.2 369.6
05/05 11:50 15.5 73 9.65 10.7 19 20 1022.1 0 21.7 27.4 43.6 114.4 110.9 382.3
05/05 11:40 15.4 72 9.46 10.4 15 19 1022.1 0 21.3 27.2 42.8 112.5 108.5 373.8
05/05 11:30 15.4 73 9.59 10.6 11 17 1022.2 0 21.6 27.4 43.4 113.9 110.2 380.0
05/05 11:20 15 79 10.13 11.4 9 15 1022.4 0 22.8 28.4 45.9 120.5 118.2 407.8
05/05 11:10 14.3 83 10.2 11.5 11 13 1022.6 0 23.0 28.8 46.6 122.4 120.3 414.9
05/05 11:00 14 87 10.49 11.9 13 20 1022.7 0 23.6 29.4 48.0 126.2 124.8 430.9
05/05 10:50 14.1 82 9.95 11.1 15 19 1022.6 0 22.4 28.4 45.6 119.9 117.1 403.8
05/05 10:40 14.8 81 10.26 11.6 15 15 1022.5 0 23.1 28.7 46.5 122.3 120.3 415.2
05/05 10:30 14.3 84 10.32 11.6 9 13 1022.4 0 23.2 29.0 47.1 123.7 121.9 420.8
05/05 10:20 14.3 85 10.44 11.8 11 13 1022.4 0 23.5 29.2 47.6 125.1 123.6 426.6
05/05 10:10 13.7 85 10.07 11.2 13 15 1022.4 0 22.7 28.7 46.4 121.8 119.4 411.7
05/05 10:00 13.4 83 9.65 10.6 11 19 1022.4 0 21.8 28.1 44.8 117.6 114.0 392.8
05/05 09:50 13.4 86 10 11.1 7 9 1022.3 0 22.6 28.7 46.2 121.5 118.8 409.8
05/05 09:40 13.1 86 9.81 10.8 9 9 1022.3 0 22.2 28.5 45.6 119.8 116.6 402.1
05/05 09:30 13.1 89 10.16 11.3 7 11 1022.3 0 23.0 29.1 47.1 123.8 121.6 419.3
05/05 09:20 12.9 91 10.26 11.5 9 11 1022.3 0 23.2 29.3 47.7 125.3 123.3 425.4
05/05 09:10 12.3 90 9.77 10.7 6 6 1022.2 0 22.2 28.7 45.9 120.6 117.3 404.3
05/05 09:00 12.1 91 9.76 10.7 7 11 1022.2 0 22.2 28.7 46.0 120.8 117.5 404.8
05/05 08:50 12 91 9.7 10.6 11 13 1022.2 2.4 22.0 28.6 45.8 120.2 116.8 402.4
05/05 08:40 12.1 89 9.55 10.3 13 17 1022.2 2.4 21.7 28.3 45.1 118.4 114.5 394.4
05/05 08:30 11.8 91 9.58 10.4 9 11 1021.9 2.4 21.8 28.5 45.4 119.1 115.3 397.4
05/05 08:20 11.6 92 9.56 10.3 9 11 1021.8 2.4 21.7 28.5 45.4 119.2 115.3 397.4
05/05 08:10 11.5 94 9.71 10.6 9 11 1021.6 2.4 22.1 28.8 46.1 121.1 117.6 405.3
05/05 08:00 11.3 95 9.69 10.5 7 9 1021.4 2.4 22.0 28.8 46.1 121.1 117.6 405.3
05/05 07:50 11.2 96 9.73 10.6 0 0 1021.2 2.4 22.1 28.9 46.3 121.7 118.3 407.7
05/05 07:40 11 96 9.61 10.4 2 6 1021.1 2.4 21.9 28.8 45.9 120.6 116.9 402.7
05/05 07:30 10.8 96 9.49 10.2 2 6 1021 2.4 21.6 28.6 45.5 119.5 115.5 397.7
05/05 07:20 10.7 96 9.43 10.1 0 2 1020.8 2.4 21.5 28.5 45.3 119.0 114.8 395.2
05/05 07:10 10.7 96 9.43 10.1 4 6 1020.7 2.4 21.5 28.5 45.3 119.0 114.7 395.2
05/05 07:00 10.6 96 9.37 10 7 7 1020.5 2.4 21.4 28.5 45.1 118.4 114.0 392.6
05/05 06:50 10.6 96 9.37 10 6 7 1020.3 2.4 21.4 28.4 45.1 118.4 114.0 392.6
05/05 06:40 10.6 96 9.37 10 7 7 1020.1 2.4 21.4 28.4 45.1 118.3 114.0 392.5
05/05 06:30 10.5 95 9.22 9.7 6 9 1020.1 2.4 21.1 28.2 44.5 116.8 112.0 385.5
05/05 06:20 10.5 95 9.22 9.7 7 9 1020 2.4 21.1 28.2 44.5 116.8 112.0 385.5
05/05 06:10 10.5 95 9.22 9.7 0 0 1019.9 2.4 21.1 28.2 44.5 116.7 112.0 385.5
05/05 06:00 10.5 96 9.31 9.9 7 11 1019.8 2.4 21.3 28.4 44.8 117.8 113.3 389.9
05/05 05:50 10.5 97 9.41 10 9 13 1019.8 2.4 21.5 28.5 45.3 118.9 114.7 394.9
05/05 05:40 10.6 98 9.57 10.3 11 13 1019.8 2.4 21.8 28.8 45.9 120.6 116.8 402.4
05/05 05:30 10.4 98 9.45 10.1 0 0 1019.8 2.4 21.6 28.6 45.5 119.5 115.4 397.4
05/05 05:20 10.3 97 9.29 9.8 0 0 1019.7 2.4 21.2 28.4 44.9 117.8 113.3 389.9
05/05 05:10 10.3 97 9.29 9.8 0 0 1019.6 2.4 21.2 28.4 44.9 117.8 113.2 389.9
05/05 05:00 10.4 98 9.45 10.1 9 9 1019.6 2.4 21.6 28.6 45.5 119.5 115.4 397.4
05/05 04:50 10.5 98 9.51 10.2 7 9 1019.5 2.4 21.7 28.7 45.7 120.1 116.1 399.8
05/05 04:40 10.6 98 9.57 10.3 11 11 1019.4 2.4 21.8 28.8 45.9 120.6 116.8 402.3
05/05 04:30 10.6 98 9.57 10.3 7 11 1019.3 2.4 21.8 28.8 45.9 120.6 116.8 402.3
05/05 04:20 10.7 98 9.63 10.4 7 7 1019.1 2.4 22.0 28.8 46.1 121.1 117.5 404.7
05/05 04:10 11 98 9.81 10.7 9 9 1019 2.4 22.3 29.0 46.7 122.7 119.6 412.1
05/05 04:00 11 98 9.81 10.7 9 11 1019.1 2.4 22.3 29.0 46.7 122.7 119.6 412.1
05/05 03:50 11 98 9.81 10.7 9 9 1018.9 2.4 22.3 29.0 46.7 122.7 119.6 412.1
05/05 03:40 10.9 98 9.75 10.6 11 13 1018.8 2.2 22.2 29.0 46.5 122.2 118.9 409.6
05/05 03:30 10.8 98 9.69 10.5 11 13 1018.8 2.2 22.1 28.9 46.3 121.6 118.1 407.1
05/05 03:20 10.8 98 9.69 10.5 9 11 1018.7 2.2 22.1 28.9 46.3 121.6 118.1 407.0
05/05 03:10 10.7 98 9.63 10.4 9 11 1018.6 2.2 22.0 28.8 46.1 121.0 117.4 404.5
05/05 03:00 10.6 98 9.57 10.3 9 15 1018.6 2.2 21.8 28.7 45.9 120.5 116.7 402.0
05/05 02:50 10.3 98 9.39 10 9 11 1018.6 2.2 21.5 28.5 45.2 118.9 114.6 394.6
05/05 02:40 10 98 9.21 9.7 7 7 1018.6 2.2 21.1 28.3 44.6 117.2 112.5 387.1
05/05 02:30 10.1 98 9.27 9.8 7 9 1018.6 2.2 21.2 28.4 44.8 117.8 113.2 389.6
05/05 02:20 10.4 98 9.45 10.1 7 9 1018.5 2.2 21.6 28.6 45.4 119.4 115.3 397.0
05/05 02:10 10.5 98 9.51 10.2 7 9 1018.5 2.2 21.7 28.7 45.6 119.9 116.0 399.5
05/05 02:00 10.5 98 9.51 10.2 7 9 1018.5 2.2 21.7 28.7 45.6 119.9 116.0 399.5
05/05 01:50 10.6 98 9.57 10.3 7 9 1018.4 2.2 21.8 28.7 45.8 120.5 116.7 402.0
05/05 01:40 10 98 9.21 9.7 11 11 1018.4 2.2 21.1 28.3 44.6 117.2 112.4 387.0
05/05 01:30 10 97 9.12 9.5 7 7 1018.3 2.2 20.9 28.1 44.2 116.2 111.1 382.5
05/05 01:20 10.2 97 9.23 9.7 7 7 1018.3 2.2 21.1 28.3 44.6 117.1 112.4 387.0
05/05 01:10 10.2 97 9.23 9.7 9 11 1018.3 2.2 21.1 28.3 44.6 117.1 112.4 387.0
05/05 01:00 10.3 97 9.29 9.8 9 13 1018.2 2.2 21.2 28.3 44.8 117.7 113.1 389.4
05/05 00:50 10.1 97 9.17 9.6 11 13 1018.2 2.2 21.0 28.2 44.4 116.6 111.7 384.5
05/05 00:40 9.7 97 8.94 9.2 9 9 1018 2 20.5 27.9 43.6 114.5 109.0 374.9
05/05 00:30 9.8 97 9 9.3 7 9 1017.8 2 20.6 28.0 43.8 115.0 109.7 377.4
05/05 00:20 9.6 97 8.89 9.1 9 9 1017.9 2 20.4 27.8 43.4 114.1 108.4 372.9
05/05 00:10 9.9 97 9.06 9.4 7 9 1017.7 2 20.8 28.0 44.0 115.5 110.4 379.8
05/05 00:00 10.1 97 9.17 9.6 7 9 1017.7 2 21.0 28.2 44.4 116.5 111.7 384.3
04/05 23:50 9.7 96 8.85 9.1 7 7 1017.8 2 20.3 27.7 43.2 113.4 107.7 370.4
04/05 23:40 9.8 96 8.91 9.2 7 7 1017.6 2 20.4 27.8 43.4 114.0 108.4 372.8
04/05 23:30 10.1 96 9.08 9.5 9 13 1017.4 2 20.8 28.0 44.0 115.4 110.3 379.7

Last Refresh: 05-May-2026 15:59:13

Bureau of Meteorology